SKW4001 KSAN-KLAX

Flight info

Callsign SKW4001
Flight time 0h 25m
Altitude 10000
Route CWARD2 SLI
Aircraft CRJ7/M-SDFGIRWY/S

Departure

Time 2026-04-25 20:45
Airport San Diego International Airport (KSAN)

Arrival

Time 2026-04-25 21:10
Airport Los Angeles International Airport (KLAX)
Time Latitude Longitude Altitude Speed Heading
2026-04-25 20:17 32.73339 -117.20343 21 ft 0 kts 263°
2026-04-25 20:28 32.73340 -117.20329 21 ft 3 kts 263°
2026-04-25 20:28 32.73342 -117.20307 21 ft 2 kts 263°
2026-04-25 20:28 32.73342 -117.20286 21 ft 3 kts 295°
2026-04-25 20:29 32.73331 -117.20269 24 ft 3 kts 332°
2026-04-25 20:29 32.73317 -117.20262 21 ft 1 kts 344°
2026-04-25 20:29 32.73316 -117.20262 21 ft 1 kts 344°
2026-04-25 20:31 32.73317 -117.20262 21 ft 1 kts 344°
2026-04-25 20:31 32.73331 -117.20267 25 ft 3 kts 343°
2026-04-25 20:32 32.73366 -117.20278 21 ft 8 kts 353°
2026-04-25 20:32 32.73412 -117.20272 21 ft 6 kts 15°
2026-04-25 20:32 32.73416 -117.20270 21 ft 0 kts 15°
2026-04-25 20:32 32.73423 -117.20268 21 ft 2 kts 15°
2026-04-25 20:33 32.73444 -117.20261 21 ft 4 kts 15°
2026-04-25 20:33 32.73478 -117.20250 21 ft 6 kts 16°
2026-04-25 20:33 32.73534 -117.20195 23 ft 16 kts 79°
2026-04-25 20:33 32.73523 -117.20091 21 ft 22 kts 106°
2026-04-25 20:34 32.73454 -117.19799 22 ft 32 kts 106°
2026-04-25 20:34 32.73391 -117.19543 21 ft 33 kts 106°
2026-04-25 20:34 32.73328 -117.19281 23 ft 33 kts 106°
2026-04-25 20:34 32.73263 -117.19015 21 ft 34 kts 106°
2026-04-25 20:35 32.73198 -117.18745 22 ft 34 kts 106°
2026-04-25 20:35 32.73140 -117.18505 23 ft 21 kts 105°
2026-04-25 20:35 32.73101 -117.18343 20 ft 7 kts 106°
2026-04-25 20:35 32.73098 -117.18331 23 ft 0 kts 106°
2026-04-25 20:37 32.73097 -117.18326 22 ft 2 kts 106°
2026-04-25 20:37 32.73089 -117.18294 20 ft 6 kts 106°
2026-04-25 20:37 32.73073 -117.18228 20 ft 11 kts 106°
2026-04-25 20:37 32.73048 -117.18124 20 ft 15 kts 106°
2026-04-25 20:38 32.73014 -117.17984 20 ft 20 kts 106°
2026-04-25 20:38 32.72984 -117.17864 22 ft 7 kts 106°
2026-04-25 20:38 32.72978 -117.17840 21 ft 0 kts 107°
2026-04-25 20:39 32.72977 -117.17837 21 ft 2 kts 107°
2026-04-25 20:40 32.72964 -117.17788 21 ft 8 kts 107°
2026-04-25 20:40 32.72948 -117.17712 20 ft 9 kts 90°
2026-04-25 20:40 32.72951 -117.17693 20 ft 0 kts 73°
2026-04-25 20:40 32.72951 -117.17691 20 ft 0 kts 73°
2026-04-25 20:42 32.72975 -117.17605 23 ft 13 kts 58°
2026-04-25 20:42 32.73012 -117.17586 20 ft 4 kts 339°
2026-04-25 20:42 32.73029 -117.17616 22 ft 0 kts 288°
2026-04-25 20:44 32.73080 -117.17820 22 ft 68 kts 285°
2026-04-25 20:44 32.73290 -117.18693 49 ft 144 kts 285°
2026-04-25 20:45 32.73626 -117.19883 863 ft 158 kts 288°
2026-04-25 20:45 32.74168 -117.21041 1949 ft 158 kts 301°
2026-04-25 20:45 32.74802 -117.22173 2662 ft 178 kts 301°
2026-04-25 20:45 32.75532 -117.23499 3153 ft 204 kts 301°
2026-04-25 20:46 32.76336 -117.24993 3799 ft 224 kts 301°
2026-04-25 20:46 32.77197 -117.26611 4468 ft 239 kts 301°
2026-04-25 20:46 32.78098 -117.28326 5266 ft 248 kts 300°
2026-04-25 20:46 32.79017 -117.30085 6134 ft 253 kts 300°
2026-04-25 20:47 32.79965 -117.31872 7021 ft 259 kts 301°
2026-04-25 20:47 32.81014 -117.33597 7909 ft 262 kts 304°
2026-04-25 20:47 32.82153 -117.35310 8832 ft 266 kts 304°
2026-04-25 20:47 32.83340 -117.37059 9530 ft 281 kts 303°
2026-04-25 20:48 32.84558 -117.38908 9821 ft 282 kts 302°
2026-04-25 20:48 32.85752 -117.40751 9939 ft 281 kts 302°
2026-04-25 20:48 32.86950 -117.42612 9955 ft 290 kts 302°
2026-04-25 20:48 32.88207 -117.44569 9968 ft 305 kts 302°
2026-04-25 20:49 32.89524 -117.46617 9982 ft 318 kts 303°
2026-04-25 20:49 32.90896 -117.48746 9986 ft 330 kts 303°
2026-04-25 20:49 32.92313 -117.50945 9987 ft 338 kts 303°
2026-04-25 20:49 32.93746 -117.53172 9982 ft 339 kts 303°
2026-04-25 20:50 32.95186 -117.55416 9979 ft 343 kts 303°
2026-04-25 20:50 32.96641 -117.57683 9977 ft 346 kts 303°
2026-04-25 20:50 32.98098 -117.59959 9970 ft 344 kts 303°
2026-04-25 20:50 32.99542 -117.62211 9967 ft 341 kts 303°
2026-04-25 20:51 33.00980 -117.64457 9968 ft 341 kts 303°
2026-04-25 20:51 33.02419 -117.66708 9964 ft 341 kts 303°
2026-04-25 20:51 33.03862 -117.68958 9965 ft 342 kts 303°
2026-04-25 20:51 33.05306 -117.71211 9970 ft 342 kts 303°
2026-04-25 20:52 33.06809 -117.73419 9960 ft 345 kts 309°
2026-04-25 20:52 33.07949 -117.74746 9962 ft 347 kts 314°
2026-04-25 20:52 33.10426 -117.77235 9962 ft 349 kts 317°
2026-04-25 20:52 33.12285 -117.79031 9967 ft 349 kts 317°
2026-04-25 20:53 33.14169 -117.80861 9964 ft 349 kts 316°
2026-04-25 20:53 33.16025 -117.82719 9959 ft 349 kts 315°
2026-04-25 20:53 33.17876 -117.84596 9965 ft 349 kts 316°
2026-04-25 20:53 33.19908 -117.86194 9954 ft 356 kts 334°
2026-04-25 20:54 33.22272 -117.87095 9959 ft 359 kts 343°
2026-04-25 20:54 33.24722 -117.87709 9963 ft 360 kts 346°
2026-04-25 20:54 33.27189 -117.88239 9960 ft 360 kts 347°
2026-04-25 20:54 33.29659 -117.88759 9962 ft 360 kts 346°
2026-04-25 20:55 33.32119 -117.89320 9968 ft 360 kts 345°
2026-04-25 20:55 33.34554 -117.89927 9968 ft 349 kts 345°
2026-04-25 20:55 33.36859 -117.90499 9956 ft 328 kts 345°
2026-04-25 20:55 33.39029 -117.91066 9936 ft 311 kts 342°
2026-04-25 20:56 33.41074 -117.91768 9932 ft 303 kts 339°
2026-04-25 20:56 33.43092 -117.92552 9946 ft 306 kts 338°
2026-04-25 20:56 33.45117 -117.93339 9965 ft 307 kts 338°
2026-04-25 20:56 33.47152 -117.94115 9974 ft 306 kts 339°
2026-04-25 20:57 33.49183 -117.94865 9962 ft 305 kts 339°
2026-04-25 20:57 33.51189 -117.95589 9956 ft 295 kts 339°
2026-04-25 20:57 33.53134 -117.96285 9944 ft 292 kts 339°
2026-04-25 20:57 33.55097 -117.96994 9950 ft 297 kts 339°
2026-04-25 20:58 33.57093 -117.97721 9952 ft 302 kts 339°
2026-04-25 20:58 33.59108 -117.98460 9917 ft 303 kts 339°
2026-04-25 20:58 33.61105 -117.99188 9543 ft 301 kts 339°
2026-04-25 20:58 33.63111 -117.99924 9021 ft 301 kts 340°
2026-04-25 20:59 33.65098 -118.00651 8503 ft 295 kts 340°
2026-04-25 20:59 33.67039 -118.01356 7996 ft 288 kts 340°
2026-04-25 20:59 33.68912 -118.02036 7462 ft 282 kts 340°
2026-04-25 20:59 33.70767 -118.02710 6974 ft 276 kts 340°
2026-04-25 21:00 33.72584 -118.03372 6479 ft 270 kts 341°
2026-04-25 21:00 33.73189 -118.03594 6310 ft 268 kts 341°
2026-04-25 21:00 33.77828 -118.05289 5148 ft 256 kts 341°
2026-04-25 21:01 33.79556 -118.05842 5008 ft 262 kts 352°
2026-04-25 21:01 33.81384 -118.05540 4958 ft 269 kts 22°
2026-04-25 21:01 33.83022 -118.04561 4940 ft 260 kts 28°
2026-04-25 21:01 33.84603 -118.03504 4828 ft 256 kts 30°
2026-04-25 21:02 33.86123 -118.02446 4482 ft 249 kts 31°
2026-04-25 21:02 33.87597 -118.01398 4093 ft 244 kts 31°
2026-04-25 21:02 33.89139 -118.00672 3758 ft 235 kts
2026-04-25 21:02 33.90699 -118.00884 3624 ft 217 kts 345°
2026-04-25 21:03 33.92014 -118.01555 3558 ft 196 kts 315°
2026-04-25 21:03 33.92750 -118.02798 3528 ft 173 kts 295°
2026-04-25 21:03 33.93306 -118.04041 3510 ft 174 kts 293°
2026-04-25 21:03 33.93876 -118.05409 3528 ft 188 kts 292°
2026-04-25 21:04 33.94451 -118.06877 3568 ft 207 kts 291°
2026-04-25 21:04 33.95072 -118.08517 3622 ft 216 kts 291°
2026-04-25 21:04 33.95686 -118.10154 3623 ft 213 kts 291°
2026-04-25 21:04 33.96122 -118.11827 3636 ft 207 kts 268°
2026-04-25 21:05 33.96083 -118.13554 3704 ft 208 kts 265°
2026-04-25 21:05 33.96003 -118.15303 3726 ft 211 kts 263°
2026-04-25 21:05 33.95871 -118.17067 3635 ft 212 kts 262°
2026-04-25 21:05 33.95715 -118.18841 3402 ft 214 kts 260°
2026-04-25 21:06 33.95536 -118.20550 3186 ft 200 kts 259°
2026-04-25 21:06 33.95368 -118.22176 2853 ft 192 kts 260°
2026-04-25 21:06 33.95208 -118.23749 2534 ft 186 kts 259°
2026-04-25 21:06 33.95157 -118.24267 2454 ft 183 kts 261°
2026-04-25 21:07 33.94918 -118.26668 2047 ft 156 kts 260°
2026-04-25 21:07 33.94801 -118.27875 1826 ft 134 kts 258°
2026-04-25 21:07 33.94690 -118.28958 1675 ft 131 kts 259°
2026-04-25 21:07 33.94562 -118.30092 1491 ft 140 kts 259°
2026-04-25 21:08 33.94443 -118.31181 1338 ft 128 kts 262°
2026-04-25 21:08 33.94348 -118.32291 1141 ft 138 kts 261°
2026-04-25 21:08 33.94239 -118.33428 970 ft 136 kts 259°
2026-04-25 21:08 33.94120 -118.34543 759 ft 133 kts 259°
2026-04-25 21:09 33.93886 -118.36685 424 ft 126 kts 265°
2026-04-25 21:09 33.93804 -118.37709 233 ft 124 kts 258°
2026-04-25 21:09 33.93697 -118.38728 114 ft 114 kts 258°
2026-04-25 21:10 33.93607 -118.39464 106 ft 60 kts 263°
2026-04-25 21:10 33.93603 -118.39746 109 ft 29 kts 277°
2026-04-25 21:10 33.93654 -118.39949 106 ft 23 kts 287°
2026-04-25 21:10 33.93657 -118.40127 105 ft 20 kts 263°
2026-04-25 21:11 33.93645 -118.40289 105 ft 19 kts 272°
2026-04-25 21:11 33.93692 -118.40405 107 ft 13 kts 326°
2026-04-25 21:11 33.93775 -118.40427 107 ft 9 kts 354°
2026-04-25 21:11 33.93825 -118.40420 103 ft 8 kts 44°
2026-04-25 21:12 33.93844 -118.40347 102 ft 10 kts 84°
2026-04-25 21:12 33.93892 -118.40291 98 ft 13 kts 357°
2026-04-25 21:12 33.93931 -118.40275 96 ft 8 kts 56°
2026-04-25 21:12 33.93938 -118.40257 96 ft 6 kts 74°
2026-04-25 21:13 33.93946 -118.40161 96 ft 9 kts 85°
2026-04-25 21:13 33.93953 -118.40079 99 ft 11 kts 83°
2026-04-25 21:13 33.93960 -118.40014 97 ft 12 kts 83°
2026-04-25 21:13 33.93975 -118.39862 95 ft 13 kts 72°
2026-04-25 21:14 33.94053 -118.39826 96 ft 14 kts
2026-04-25 21:14 33.94115 -118.39828 94 ft 0 kts
2026-04-25 21:14 33.94116 -118.39828 94 ft 1 kts
2026-04-25 21:14 33.94119 -118.39826 93 ft 1 kts 26°
2026-04-25 21:15 33.94126 -118.39817 94 ft 2 kts 62°
2026-04-25 21:15 33.94129 -118.39793 95 ft 4 kts 81°
2026-04-25 21:15 33.94131 -118.39778 93 ft 1 kts 82°
2026-04-25 21:15 33.94132 -118.39773 93 ft 0 kts 82°